This demonstration page uses our WeatherBlox Daily Observations layout. Learn more.

Left ArrowRight Arrow

34.74481, -87.66753

Hourly Observations for March 20, 2021

Temp ( °F °C ) Dew Point ( °F °C ) Humidity (%) Winds ( mph kmh ) Pressure ( in mb ) Visibility ( mi km ) Precip ( " mm )
12:53 am 00:53 Mostly Clear 49 9.4 36 2.2 61 61 Calm 30.29 1026 10 16 0.00 0.00
2:53 am 02:53 Cloudy 49 9.4 34 1.1 56 56 ENE 6 9 30.30 1026 10 16 0.00 0.00
3:53 am 03:53 Cloudy 49 9.4 35 1.7 59 59 ENE 5 7 30.30 1026 10 16 0.00 0.00
4:53 am 04:53 Cloudy 50 10 35 1.7 57 57 ENE 6 9 30.32 1027 10 16 0.00 0.00
5:53 am 05:53 Cloudy 49 9.4 35 1.7 59 59 NE 7 11 30.35 1028 10 16 0.00 0.00
6:53 am 06:53 Cloudy 49 9.4 36 2.2 61 61 ENE 6 9 30.36 1028 10 16 0.00 0.00
7:53 am 07:53 Cloudy 49 9.4 37 2.8 64 64 ENE 5 7 30.39 1029 10 16 0.00 0.00
8:53 am 08:53 Sunny 54 12.2 35 1.7 49 49 ESE 15 24 30.40 1030 10 16 0.00 0.00
9:53 am 09:53 Sunny 55 12.8 32 0 42 42 SE 15 24 30.41 1030 10 16 0.00 0.00
10:53 am 10:53 Sunny 57 13.9 31 -0.6 37 37 E 10 17 30.41 1030 10 16 0.00 0.00
11:53 am 11:53 Sunny 58 14.4 31 -0.6 36 36 E 13 20 30.40 1029 10 16 0.00 0.00
12:53 pm 12:53 Sunny 60 15.6 34 1.1 38 38 E 13 20 30.38 1029 10 16 0.00 0.00
1:53 pm 13:53 Sunny 62 16.7 34 1.1 35 35 NE 3 6 30.36 1028 10 16 0.00 0.00
2:53 pm 14:53 Sunny 63 17.2 35 1.7 35 35 NE 5 7 30.33 1027 10 16 0.00 0.00
3:53 pm 15:53 Sunny 64 17.8 33 0.6 32 32 ESE 6 9 30.31 1026 10 16 0.00 0.00
4:53 pm 16:53 Sunny 65 18.3 34 1.1 32 32 ESE 6 9 30.28 1026 10 16 0.00 0.00
5:53 pm 17:53 Sunny 64 17.8 36 2.2 35 35 ESE 7 11 30.28 1026 10 16 0.00 0.00
6:53 pm 18:53 Sunny 61 16.1 37 2.8 41 41 SE 5 7 30.29 1026 10 16 0.00 0.00
7:53 pm 19:53 Clear 56 13.3 36 2.2 47 47 Calm 30.29 1026 10 16 0.00 0.00
8:53 pm 20:53 Clear 53 11.7 38 3.3 57 57 Calm 30.30 1026 10 16 0.00 0.00
9:53 pm 21:53 Clear 51 10.6 40 4.4 66 66 Calm 30.31 1027 10 16 0.00 0.00
10:53 pm 22:53 Clear 48 8.9 39 3.9 71 71 SE 3 6 30.32 1027 10 16 0.00 0.00
11:53 pm 23:53 Clear 46 7.8 38 3.3 73 73 Calm 30.32 1027 10 16 0.00 0.00

Powered by AerisWeather